Location: Sobotiste
(48.7170°N, 17.4000°E)
Time: 09:41:51
(UTC+02:00)

YUBILEINY - Pass Details

Date: 18 March 2026
Orbit: 1477 x 1509 km, 82.5° (Epoch: 17 April)

Event Time Altitude Azimuth Distance (km) Brightness Sun altitude
Rises 05:20:20 0° 340° (NNW) 4,618 ? -7.0°
Reaches altitude 10° 05:25:03 10° 318° (NW) 3,628 ? -6.2°
Maximum altitude 05:28:56 14° 290° (WNW) 3,318 ? -5.6°
Drops below altitude 10° 05:32:48 10° 263° (W) 3,616 ? -5.0°
Sets 05:37:31 0° 240° (WSW) 4,589 ? -4.2°
